Regional Weather Roundup
Issued by NWS

Home | Current Version | Previous Version | Graphics & Text | Print | Product List | Glossary Off
Versions: 1 2 3 4 5 6 7 8 9 10 11 12 13 14 15 16 17 18 19 20 21 22 23 24 25 26 27 28 29 30 31 32 33 34 35 36 37 38 39 40 41 42 43 44 45 46 47 48 49 50

000
ASUS43 KDMX 212001
RWRIA

WEATHER ROUNDUP FOR IOWA
NATIONAL WEATHER SERVICE DES MOINES IA
300 PM CDT MON AUG 21 2017

NOTE: "FAIR" INDICATES FEW OR NO CLOUDS BELOW 12,000 FEET WITH NO
SIGNIFICANT WEATHER AND/OR OBSTRUCTIONS TO VISIBILITY.

* - THESE STATIONS ARE NOT NWS STATIONS...THUS NOT UNDER NWS
QUALITY CONTROL.  THEY ALSO DO NOT REPORT WEATHER SUCH
AS PRECIPITATION OR FOG.

IAZ001>003-012>014-020>022-031>034-043>046-212100-
   NORTHWEST IOWA

CITY           SKY/WX    TMP DP  RH WIND       PRES   REMARKS
CARROLL *      SUNNY     81  70  69 S23G30    29.93S HX  84
CHEROKEE *     RAIN      76  70  82 S8        29.95R
DENISON *      MOSUNNY   79  70  73 S18G30    29.95S HX  81
LE MARS *      RAIN     104 N/A N/A W12G33    29.99R VSB 1/4
ORANGE CITY *  HVY RAIN  70  66  88 SW14      29.99R
SHELDON *      RAIN      66  64  94 NE17G23   29.96F
SIOUX CITY     CLOUDY    79  71  76 W12       29.98R HX  82
SPENCER        HVY RAIN  66  65  96 E7        30.02R FOG
STORM LAKE *     N/A     77  70  78 S17G24    29.95R
$$

IAZ055>058-069>071-079>083-090>094-212100-
   SOUTHWEST IOWA

CITY           SKY/WX    TMP DP  RH WIND       PRES   REMARKS
ATLANTIC *     CLOUDY    77  72  83 S13G20    29.96F
AUDUBON *      MOSUNNY   79  72  78 S17G23    29.97F HX  82
CLARINDA *     MOSUNNY   79  73  83 S13G21    29.99S HX  82
COUNCIL BLFS * CLOUDY    79  73  83 S15G23    29.96F HX  82
CRESTON *      MOSUNNY   79  72  78 S15G21    29.98F HX  82
HARLAN  *      MOSUNNY   77  72  83 S18G25    29.99S
LAMONI         CLOUDY    79  71  76 S7        29.98F HX  82
RED OAK *      CLOUDY    77  72  83 S13       29.97S
SHENANDOAH *   PTSUNNY   81  73  78 S12       29.97F HX  85
$$

IAZ047>049-059>061-072>074-084-212100-
   CENTRAL IOWA

CITY           SKY/WX    TMP DP  RH WIND       PRES   REMARKS
AMES           CLOUDY    79  70  74 S15G29    29.95S HX  82
ANKENY *       CLOUDY    79  68  69 S17G29    29.95F HX  81
BOONE *        MOSUNNY   79  68  69 S12G24    29.95S HX  81
CHARITON *     CLOUDY    81  70  69 S14       29.97F HX  84
DES MOINES     CLOUDY    78  68  71 S14       29.95F HX  80
GRINNELL*      CLOUDY    73  66  79 S7        29.99F
KNOXVILLE *    MOSUNNY   81  70  69 S15       29.95F HX  84
MARSHALLTOWN   LGT RAIN  74  66  76 S6        29.98R
NEWTON *       CLOUDY    77  68  73 S10G17    29.97F
PELLA *        MOSUNNY   81  69  66 SW12G20   29.98F HX  84
PERRY *          N/A     81  71  73 S15G24    29.96S HX  85
$$

IAZ004>006-015-016-023>025-035-036-212100-
   NORTH CENTRAL IOWA

CITY           SKY/WX    TMP DP  RH WIND       PRES   REMARKS
ALGONA *       HVY RAIN  68  68 100 N16       29.99F VSB 1/2
CLARION *      CLOUDY    68  68 100 NE7       29.99R
ESTHERVILLE    RAIN      65  65 100 S14       29.99S FOG
FORT DODGE *   CLOUDY    72  63  73 E8        29.99R
MASON CITY     LGT RAIN  69  66  90 W9        30.03R
FOREST CITY *  HVY RAIN  68  64  88 W6        30.03R
WEBSTER CITY * MOSUNNY   75  66  73 E9        29.96R
IOWA FALLS *   PTSUNNY   78  65  62 E7        29.99S HX  80
$$

IAZ007>011-017>019-026>030-037>042-050>054-066-212100-
   NORTHEAST IOWA

CITY           SKY/WX    TMP DP  RH WIND       PRES   REMARKS
CEDAR RAPIDS   CLOUDY    75  69  81 S10       30.00R
CHARLES CITY * PTSUNNY   72  68  88 CALM      29.97S
CLINTON *      CLOUDY    77  70  79 SE9       29.99F
DECORAH *      CLOUDY    73  66  78 VRB6      29.96S
DUBUQUE        CLOUDY    74  67  78 S5        29.99F
MONTICELLO *   PTSUNNY   77  70  78 S9        29.98R
OELWEIN *      CLOUDY    75  68  78 S13G20    29.97F
WATERLOO       CLOUDY    75  64  68 S9        29.97R
$$

IAZ064-065-067-068-078-212100-
   EAST CENTRAL IOWA

CITY           SKY/WX    TMP DP  RH WIND       PRES   REMARKS
DAVENPORT      CLOUDY    77  68  73 S13G22    30.00F
IOWA CITY      CLOUDY    77  68  73 S7        30.01R
MUSCATINE *    PTSUNNY   77  70  78 VRB5G14   29.99R
QUAD CITIES    PTSUNNY   79  69  71 SW7       29.99S HX  81
$$

IAZ062-063-075>077-085>089-095>099-212100-
   SOUTHEAST IOWA

CITY           SKY/WX    TMP DP  RH WIND       PRES   REMARKS
BURLINGTON     CLOUDY    74  70  87 SW15      30.01F
FAIRFIELD *    MOSUNNY   81  66  61 SW18G31   29.96F HX  83
FORT MADISON * CLOUDY    73  70  88 SW8G20    30.01F
KEOKUK *       CLOUDY    72  70  94 SW10      30.03F
OSKALOOSA *      N/A     80  70  72 SW14G22   29.97F HX  83
OTTUMWA        CLOUDY    82  70  66 S17G23    29.96F HX  86
WASHINGTON *   CLOUDY    79  72  78 SW15G24   29.97F HX  82
$$

ABBREVIATIONS USED IN REMARKS
   TC - TEMPERATURES IN CELSIUS
  WCI - WIND CHILL INDEX
   HX - HEAT INDEX
  VSB - VISIBILITY
$$




USA.gov is the U.S. government's official web portal to all federal, state and local government web resources and services.